Weather History for Aurora, CO

Change the Weather History Date:

Tuesday, May 28, 2013

  Actual Average Record
Temperature  
Mean Temperature 63 °F -  
Max Temperature 80 °F 73 °F 87 °F (2000)
Min Temperature 46 °F 47 °F 41 °F (1997)
Degree Days  
Heating Degree Days 2    
Growing Degree Days 13 (Base 50)    
Moisture  
Dew Point 37 °F    
Average Humidity 41    
Maximum Humidity 82    
Minimum Humidity 14    
Precipitation  
Precipitation 0.00 in - - ()
Sea Level Pressure  
Sea Level Pressure 29.55 in    
Wind  
Wind Speed 10 mph (SSW)    
Max Wind Speed 23 mph    
Max Gust Speed 33 mph    
Averages and records for this station are not official NWS values.
T = Trace of Precipitation, MM = Missing Value Source: NWS Daily Summary

Daily Weather History Graph

Daily Weather History Graph

Search for Another Location

Airport:

Trip Planner

Search our weather history database for the weather conditions in past years. The results will help you decide how hot, cold, wet, or windy it might be!

Date:

Astronomy

May. 28, 2013 Rise Set
Actual Time 5:34 AM MDT 8:18 PM MDT
Civil Twilight 5:03 AM MDT 8:49 PM MDT
Nautical Twilight 4:23 AM MDT 9:29 PM MDT
Astronomical Twilight 3:38 AM MDT 10:14 PM MDT
Moon 11:43 PM MDT (5/28) 9:25 AM MDT (5/28)
Length of Visible Light 15h 46m
Length of Day
14h 43m
Waning Gibbous, 82% of the Moon is Illuminated
May 28
Waning Gibbous
May 31
Last Quarter
Jun 8
New
Jun 16
First Quarter
Jun 23
Full

Hourly Weather History & Observations

Time (MDT) Temp. Windchill Dew Point Humidity Pressure Visibility Wind Dir Wind Speed Gust Speed Precip Events Conditions
12:55 AM 57.2 °F - 41.0 °F 55% 29.63 in 25.0 mi SW 8.1 mph - N/A   Partly Cloudy
1:55 AM 53.6 °F - 35.6 °F 51% 29.62 in 25.0 mi SSW 8.1 mph - N/A   Partly Cloudy
2:55 AM 51.8 °F - 35.6 °F 54% 29.61 in 25.0 mi SSW 8.1 mph - N/A   Partly Cloudy
3:55 AM 50.0 °F - 33.8 °F 54% 29.64 in 25.0 mi South 10.4 mph - N/A   Mostly Cloudy
4:55 AM 50.0 °F - 35.6 °F 58% 29.67 in 25.0 mi ENE 3.5 mph - N/A   Scattered Clouds
5:55 AM 46.4 °F 44.3 °F 35.6 °F 66% 29.68 in 70.0 mi West 4.6 mph - N/A   Partly Cloudy
6:55 AM 48.2 °F - 42.8 °F 82% 29.70 in 70.0 mi NNW 5.8 mph - N/A   Partly Cloudy
7:55 AM 51.8 °F - 42.8 °F 71% 29.70 in 70.0 mi NNW 6.9 mph - N/A   Partly Cloudy
8:55 AM 55.4 °F - 42.8 °F 63% 29.69 in 70.0 mi WSW 3.5 mph - N/A   Scattered Clouds
9:55 AM 60.8 °F - 42.8 °F 52% 29.67 in 70.0 mi SW 10.4 mph - N/A   Mostly Cloudy
10:55 AM 66.2 °F - 41.0 °F 40% 29.63 in 70.0 mi SW 6.9 mph - N/A   Mostly Cloudy
11:55 AM 71.6 °F - 42.8 °F 35% 29.58 in 70.0 mi South 3.5 mph - N/A   Mostly Cloudy
12:55 PM 75.2 °F - 42.8 °F 31% 29.54 in 70.0 mi SE 17.3 mph 23.0 mph N/A   Mostly Cloudy
1:55 PM 78.8 °F - 33.8 °F 20% 29.50 in 70.0 mi SSE 21.9 mph 32.2 mph N/A   Mostly Cloudy
2:55 PM 80.6 °F - 32.0 °F 17% 29.47 in 70.0 mi SSE 23.0 mph 33.4 mph N/A   Mostly Cloudy
3:55 PM 80.6 °F - 33.8 °F 18% 29.44 in 70.0 mi SSE 23.0 mph 33.4 mph N/A   Mostly Cloudy
4:55 PM 80.6 °F - 26.6 °F 14% 29.42 in 25.0 mi South 19.6 mph 32.2 mph N/A   Mostly Cloudy
5:55 PM 80.6 °F - 30.2 °F 16% 29.41 in 25.0 mi South 19.6 mph 25.3 mph N/A   Mostly Cloudy
6:55 PM 75.2 °F - 35.6 °F 24% 29.41 in 25.0 mi SSE 16.1 mph 25.3 mph N/A   Mostly Cloudy
7:55 PM 69.8 °F - 37.4 °F 31% 29.42 in 25.0 mi SSE 12.7 mph - N/A   Mostly Cloudy
8:55 PM 69.8 °F - 35.6 °F 28% 29.42 in 25.0 mi SW 12.7 mph - N/A   Mostly Cloudy
9:55 PM 68.0 °F - 37.4 °F 33% 29.44 in 25.0 mi SE 12.7 mph - N/A   Mostly Cloudy
10:55 PM 64.4 °F - 41.0 °F 42% 29.42 in 25.0 mi SW 3.5 mph - N/A   Mostly Cloudy
11:55 PM 66.2 °F - 41.0 °F 40% 29.39 in 25.0 mi SW 5.8 mph - N/A Thunderstorm Mostly Cloudy